Time,TemperatureF,DewpointF,PressureIn,WindDirection,WindDirectionDegrees,WindSpeedMPH,WindSpeedGustMPH,Humidity,HourlyPrecipIn,Conditions,Clouds,dailyrainin,SoftwareType,DateUTC
2013-04-22 00:00:00,66.1,38.4,29.97,NNW,329,0.0,0.0,36,0.00,,,0.00,Wunderground v.1.15,2013-04-22 07:00:00,
2013-04-22 00:10:00,65.2,38.3,29.97,NNW,329,0.0,0.0,37,0.00,,,0.00,Wunderground v.1.15,2013-04-22 07:10:00,
2013-04-22 00:15:00,64.7,38.5,29.97,NNW,329,0.0,0.0,38,0.00,,,0.00,Wunderground v.1.15,2013-04-22 07:15:00,
2013-04-22 00:20:00,64.5,38.3,29.97,NNW,329,0.0,0.0,38,0.00,,,0.00,Wunderground v.1.15,2013-04-22 07:20:00,
2013-04-22 00:30:00,64.4,38.9,29.97,NNW,329,0.0,0.0,39,0.00,,,0.00,Wunderground v.1.15,2013-04-22 07:30:00,
2013-04-22 00:35:00,64.0,38.5,29.97,NNW,329,0.0,0.0,39,0.00,,,0.00,Wunderground v.1.15,2013-04-22 07:35:00,
2013-04-22 00:40:00,63.8,39.0,29.97,NNW,329,0.0,0.0,40,0.00,,,0.00,Wunderground v.1.15,2013-04-22 07:40:00,
2013-04-22 00:45:00,63.6,38.8,29.97,NNW,329,0.0,0.0,40,0.00,,,0.00,Wunderground v.1.15,2013-04-22 07:45:00,
2013-04-22 00:55:00,63.0,38.9,29.97,NNW,329,0.0,0.0,41,0.00,,,0.00,Wunderground v.1.15,2013-04-22 07:55:00,
2013-04-22 01:00:00,62.7,38.6,29.97,NNW,329,0.0,0.0,41,0.00,,,0.00,Wunderground v.1.15,2013-04-22 08:00:00,
2013-04-22 01:05:00,62.6,39.2,29.97,NNW,329,0.0,0.0,42,0.00,,,0.00,Wunderground v.1.15,2013-04-22 08:05:00,
2013-04-22 01:10:00,62.5,39.1,29.97,NNW,329,0.0,0.0,42,0.00,,,0.00,Wunderground v.1.15,2013-04-22 08:10:00,
2013-04-22 01:15:00,62.4,39.0,29.96,NNW,329,0.0,0.0,42,0.00,,,0.00,Wunderground v.1.15,2013-04-22 08:15:00,
2013-04-22 01:20:00,62.5,38.5,29.96,NNW,329,0.0,0.0,41,0.00,,,0.00,Wunderground v.1.15,2013-04-22 08:20:00,
2013-04-22 01:30:00,62.8,38.1,29.96,NNW,329,0.0,0.0,40,0.00,,,0.00,Wunderground v.1.15,2013-04-22 08:30:00,
2013-04-22 01:35:00,63.2,37.8,29.96,NNW,329,0.0,0.0,39,0.00,,,0.00,Wunderground v.1.15,2013-04-22 08:35:00,
2013-04-22 01:40:00,63.4,38.6,29.96,NNW,329,0.0,0.0,40,0.00,,,0.00,Wunderground v.1.15,2013-04-22 08:40:00,
2013-04-22 01:50:00,64.1,38.6,29.96,NNW,329,0.0,0.0,39,0.00,,,0.00,Wunderground v.1.15,2013-04-22 08:50:00,
2013-04-22 01:55:00,64.4,38.9,29.95,NNW,329,0.0,1.0,39,0.00,,,0.00,Wunderground v.1.15,2013-04-22 08:55:00,
2013-04-22 02:05:00,64.3,39.4,29.95,NNW,329,0.0,0.0,40,0.00,,,0.00,Wunderground v.1.15,2013-04-22 09:05:00,
2013-04-22 02:10:00,64.1,39.9,29.95,NNW,329,0.0,0.0,41,0.00,,,0.00,Wunderground v.1.15,2013-04-22 09:10:00,
2013-04-22 02:15:00,63.7,39.5,29.95,NNW,329,0.0,1.0,41,0.00,,,0.00,Wunderground v.1.15,2013-04-22 09:15:00,
2013-04-22 02:20:00,63.5,40.0,29.95,NNW,329,0.0,0.0,42,0.00,,,0.00,Wunderground v.1.15,2013-04-22 09:20:00,
2013-04-22 02:25:00,63.3,40.4,29.95,NNW,329,0.0,0.0,43,0.00,,,0.00,Wunderground v.1.15,2013-04-22 09:25:00,
2013-04-22 02:35:00,62.8,40.0,29.95,NNW,329,0.0,0.0,43,0.00,,,0.00,Wunderground v.1.15,2013-04-22 09:35:00,
2013-04-22 02:40:00,62.5,39.1,29.95,NNW,329,0.0,0.0,42,0.00,,,0.00,Wunderground v.1.15,2013-04-22 09:40:00,
2013-04-22 02:45:00,62.2,40.0,29.95,NNW,329,0.0,0.0,44,0.00,,,0.00,Wunderground v.1.15,2013-04-22 09:45:00,
2013-04-22 02:50:00,61.9,39.7,29.95,NNW,329,0.0,0.0,44,0.00,,,0.00,Wunderground v.1.15,2013-04-22 09:50:00,
2013-04-22 02:55:00,61.5,39.9,29.95,NNW,329,0.0,0.0,45,0.00,,,0.00,Wunderground v.1.15,2013-04-22 09:55:00,
2013-04-22 03:00:00,61.6,40.6,29.95,NW,314,1.0,4.0,46,0.00,,,0.00,Wunderground v.1.15,2013-04-22 10:00:00,
2013-04-22 03:05:00,62.0,40.4,29.95,NNW,333,2.0,4.0,45,0.00,,,0.00,Wunderground v.1.15,2013-04-22 10:05:00,
2013-04-22 03:15:00,62.0,39.8,29.95,NW,321,1.0,2.0,44,0.00,,,0.00,Wunderground v.1.15,2013-04-22 10:15:00,
2013-04-22 03:20:00,61.7,40.7,29.95,NW,321,0.0,0.0,46,0.00,,,0.00,Wunderground v.1.15,2013-04-22 10:20:00,
2013-04-22 03:25:00,61.3,40.9,29.95,NW,321,0.0,0.0,47,0.00,,,0.00,Wunderground v.1.15,2013-04-22 10:25:00,
2013-04-22 03:30:00,60.7,40.9,29.95,NW,321,0.0,0.0,48,0.00,,,0.00,Wunderground v.1.15,2013-04-22 10:30:00,
2013-04-22 03:35:00,60.2,40.4,29.94,NW,321,0.0,0.0,48,0.00,,,0.00,Wunderground v.1.15,2013-04-22 10:35:00,
2013-04-22 03:40:00,60.0,40.8,29.94,NW,321,0.0,0.0,49,0.00,,,0.00,Wunderground v.1.15,2013-04-22 10:40:00,
2013-04-22 03:45:00,60.0,40.8,29.94,NW,321,0.0,0.0,49,0.00,,,0.00,Wunderground v.1.15,2013-04-22 10:45:00,
2013-04-22 03:55:00,60.2,41.0,29.94,NW,321,0.0,0.0,49,0.00,,,0.00,Wunderground v.1.15,2013-04-22 10:55:00,
2013-04-22 04:00:00,60.3,41.0,29.94,NW,321,0.0,0.0,49,0.00,,,0.00,Wunderground v.1.15,2013-04-22 11:00:00,
2013-04-22 04:05:00,60.5,41.2,29.94,NW,321,0.0,0.0,49,0.00,,,0.00,Wunderground v.1.15,2013-04-22 11:05:00,
2013-04-22 04:10:00,60.7,41.4,29.94,NW,321,0.0,0.0,49,0.00,,,0.00,Wunderground v.1.15,2013-04-22 11:10:00,
2013-04-22 04:20:00,60.9,41.1,29.94,NW,321,0.0,0.0,48,0.00,,,0.00,Wunderground v.1.15,2013-04-22 11:20:00,
2013-04-22 04:25:00,61.0,41.2,29.94,NW,321,0.0,0.0,48,0.00,,,0.00,Wunderground v.1.15,2013-04-22 11:25:00,
2013-04-22 04:30:00,61.1,41.2,29.94,NW,321,0.0,0.0,48,0.00,,,0.00,Wunderground v.1.15,2013-04-22 11:30:00,
2013-04-22 04:35:00,61.2,41.3,29.94,NW,321,0.0,0.0,48,0.00,,,0.00,Wunderground v.1.15,2013-04-22 11:35:00,
2013-04-22 04:40:00,61.3,41.4,29.94,NW,321,0.0,0.0,48,0.00,,,0.00,Wunderground v.1.15,2013-04-22 11:40:00,
2013-04-22 04:50:00,61.5,41.6,29.94,NW,321,0.0,0.0,48,0.00,,,0.00,Wunderground v.1.15,2013-04-22 11:50:00,
2013-04-22 04:55:00,61.6,41.2,29.94,NW,321,0.0,0.0,47,0.00,,,0.00,Wunderground v.1.15,2013-04-22 11:55:00,
2013-04-22 05:00:00,61.8,41.3,29.94,NW,321,0.0,0.0,47,0.00,,,0.00,Wunderground v.1.15,2013-04-22 12:00:00,
2013-04-22 05:05:00,62.2,41.2,29.94,NW,321,0.0,0.0,46,0.00,,,0.00,Wunderground v.1.15,2013-04-22 12:05:00,
2013-04-22 05:15:00,62.5,41.4,29.94,NW,321,0.0,0.0,46,0.00,,,0.00,Wunderground v.1.15,2013-04-22 12:15:00,
2013-04-22 05:20:00,62.2,41.2,29.94,NW,321,0.0,0.0,46,0.00,,,0.00,Wunderground v.1.15,2013-04-22 12:20:00,
2013-04-22 05:25:00,62.1,41.1,29.94,NW,321,0.0,0.0,46,0.00,,,0.00,Wunderground v.1.15,2013-04-22 12:25:00,
2013-04-22 05:35:00,61.7,41.8,29.94,NW,321,0.0,0.0,48,0.00,,,0.00,Wunderground v.1.15,2013-04-22 12:35:00,
2013-04-22 05:40:00,61.7,41.8,29.94,NW,321,0.0,0.0,48,0.00,,,0.00,Wunderground v.1.15,2013-04-22 12:40:00,
2013-04-22 05:45:00,61.8,41.9,29.94,NW,321,0.0,0.0,48,0.00,,,0.00,Wunderground v.1.15,2013-04-22 12:45:00,
2013-04-22 05:50:00,62.0,42.6,29.94,NW,321,0.0,0.0,49,0.00,,,0.00,Wunderground v.1.15,2013-04-22 12:50:00,
2013-04-22 05:55:00,62.0,41.5,29.94,NW,321,0.0,0.0,47,0.00,,,0.00,Wunderground v.1.15,2013-04-22 12:55:00,
2013-04-22 06:05:00,62.0,42.1,29.95,North,350,0.0,0.0,48,0.00,,,0.00,Wunderground v.1.15,2013-04-22 13:05:00,
2013-04-22 06:10:00,62.1,42.2,29.95,North,350,0.0,0.0,48,0.00,,,0.00,Wunderground v.1.15,2013-04-22 13:10:00,
2013-04-22 06:15:00,62.3,41.8,29.95,North,350,0.0,0.0,47,0.00,,,0.00,Wunderground v.1.15,2013-04-22 13:15:00,
2013-04-22 06:25:00,62.9,41.8,29.95,North,350,0.0,0.0,46,0.00,,,0.00,Wunderground v.1.15,2013-04-22 13:25:00,
2013-04-22 06:30:00,62.9,42.9,29.95,North,350,0.0,0.0,48,0.00,,,0.00,Wunderground v.1.15,2013-04-22 13:30:00,
2013-04-22 06:35:00,62.8,42.3,29.95,North,350,0.0,0.0,47,0.00,,,0.00,Wunderground v.1.15,2013-04-22 13:35:00,
2013-04-22 06:45:00,62.8,42.8,29.95,North,350,0.0,0.0,48,0.00,,,0.00,Wunderground v.1.15,2013-04-22 13:45:00,
2013-04-22 06:50:00,62.7,42.7,29.96,North,350,0.0,0.0,48,0.00,,,0.00,Wunderground v.1.15,2013-04-22 13:50:00,
2013-04-22 06:55:00,62.8,42.8,29.96,North,350,0.0,0.0,48,0.00,,,0.00,Wunderground v.1.15,2013-04-22 13:55:00,
2013-04-22 07:05:00,62.9,42.9,29.96,North,350,0.0,0.0,48,0.00,,,0.00,Wunderground v.1.15,2013-04-22 14:05:00,
2013-04-22 07:10:00,63.0,43.5,29.96,North,350,0.0,0.0,49,0.00,,,0.00,Wunderground v.1.15,2013-04-22 14:10:00,
2013-04-22 07:20:00,63.6,44.6,29.97,North,350,0.0,0.0,50,0.00,,,0.00,Wunderground v.1.15,2013-04-22 14:20:00,
2013-04-22 07:25:00,63.9,44.9,29.97,North,350,0.0,0.0,50,0.00,,,0.00,Wunderground v.1.15,2013-04-22 14:25:00,
2013-04-22 07:30:00,64.1,45.6,29.97,North,350,0.0,0.0,51,0.00,,,0.00,Wunderground v.1.15,2013-04-22 14:30:00,
2013-04-22 07:40:00,65.1,44.4,29.97,North,350,0.0,0.0,47,0.00,,,0.00,Wunderground v.1.15,2013-04-22 14:40:00,
2013-04-22 07:45:00,65.4,45.7,29.97,North,350,0.0,0.0,49,0.00,,,0.00,Wunderground v.1.15,2013-04-22 14:45:00,
2013-04-22 07:50:00,65.6,45.9,29.97,North,350,0.0,0.0,49,0.00,,,0.00,Wunderground v.1.15,2013-04-22 14:50:00,
2013-04-22 07:55:00,65.5,45.8,29.97,North,350,0.0,0.0,49,0.00,,,0.00,Wunderground v.1.15,2013-04-22 14:55:00,
2013-04-22 08:05:00,65.6,47.0,29.97,North,350,0.0,0.0,51,0.00,,,0.00,Wunderground v.1.15,2013-04-22 15:05:00,
2013-04-22 08:10:00,65.6,46.5,29.97,ENE,71,0.0,0.0,50,0.00,,,0.00,Wunderground v.1.15,2013-04-22 15:10:00,
2013-04-22 08:15:00,65.8,46.1,29.97,SW,221,0.0,0.0,49,0.00,,,0.00,Wunderground v.1.15,2013-04-22 15:15:00,
2013-04-22 08:25:00,66.2,45.4,29.98,East,90,0.0,0.0,47,0.00,,,0.00,Wunderground v.1.15,2013-04-22 15:25:00,
2013-04-22 08:30:00,66.5,45.6,29.98,East,90,0.0,0.0,47,0.00,,,0.00,Wunderground v.1.15,2013-04-22 15:30:00,
2013-04-22 08:40:00,67.0,46.1,29.98,East,95,1.0,1.0,47,0.00,,,0.00,Wunderground v.1.15,2013-04-22 15:40:00,
2013-04-22 08:45:00,67.3,45.8,29.98,East,95,1.0,1.0,46,0.00,,,0.00,Wunderground v.1.15,2013-04-22 15:45:00,
2013-04-22 08:50:00,67.5,46.6,29.98,East,95,0.0,0.0,47,0.00,,,0.00,Wunderground v.1.15,2013-04-22 15:50:00,
2013-04-22 08:55:00,67.8,47.4,29.98,East,95,0.0,0.0,48,0.00,,,0.00,Wunderground v.1.15,2013-04-22 15:55:00,
2013-04-22 09:00:00,68.3,47.3,29.98,East,95,0.0,0.0,47,0.00,,,0.00,Wunderground v.1.15,2013-04-22 16:00:00,
2013-04-22 09:05:00,69.1,46.3,29.98,ESE,110,0.0,0.0,44,0.00,,,0.00,Wunderground v.1.15,2013-04-22 16:05:00,
2013-04-22 09:15:00,70.4,48.0,29.98,ESE,110,0.0,1.0,45,0.00,,,0.00,Wunderground v.1.15,2013-04-22 16:15:00,
2013-04-22 09:20:00,70.9,48.5,29.98,ESE,121,0.0,0.0,45,0.00,,,0.00,Wunderground v.1.15,2013-04-22 16:20:00,
2013-04-22 09:25:00,71.4,48.3,29.98,SE,128,0.0,0.0,44,0.00,,,0.00,Wunderground v.1.15,2013-04-22 16:25:00,
2013-04-22 09:30:00,71.7,47.4,29.98,ESE,122,0.0,1.0,42,0.00,,,0.00,Wunderground v.1.15,2013-04-22 16:30:00,
2013-04-22 09:35:00,71.7,46.7,29.98,SSE,157,1.0,2.0,41,0.00,,,0.00,Wunderground v.1.15,2013-04-22 16:35:00,
2013-04-22 09:45:00,72.1,47.1,29.97,SSE,159,1.0,1.0,41,0.00,,,0.00,Wunderground v.1.15,2013-04-22 16:45:00,
2013-04-22 09:50:00,72.5,47.5,29.97,SE,146,0.0,2.0,41,0.00,,,0.00,Wunderground v.1.15,2013-04-22 16:50:00,
2013-04-22 09:55:00,72.7,48.3,29.97,SE,144,0.0,2.0,42,0.00,,,0.00,Wunderground v.1.15,2013-04-22 16:55:00,
2013-04-22 10:00:00,73.0,47.9,29.98,SSE,153,1.0,1.0,41,0.00,,,0.00,Wunderground v.1.15,2013-04-22 17:00:00,
2013-04-22 10:05:00,73.4,47.6,29.97,SSE,156,1.0,1.0,40,0.00,,,0.00,Wunderground v.1.15,2013-04-22 17:05:00,
2013-04-22 10:15:00,74.3,48.4,29.97,ESE,118,1.0,1.0,40,0.00,,,0.00,Wunderground v.1.15,2013-04-22 17:15:00,
2013-04-22 10:20:00,74.6,48.7,29.97,ESE,117,1.0,1.0,40,0.00,,,0.00,Wunderground v.1.15,2013-04-22 17:20:00,
2013-04-22 10:25:00,75.0,47.0,29.98,ESE,123,1.0,1.0,37,0.00,,,0.00,Wunderground v.1.15,2013-04-22 17:25:00,
2013-04-22 10:30:00,74.9,46.1,29.98,SE,124,1.0,2.0,36,0.00,,,0.00,Wunderground v.1.15,2013-04-22 17:30:00,
2013-04-22 10:35:00,75.0,47.0,29.98,East,96,1.0,2.0,37,0.00,,,0.00,Wunderground v.1.15,2013-04-22 17:35:00,
2013-04-22 10:45:00,75.7,44.5,29.98,SW,227,1.0,1.0,33,0.00,,,0.00,Wunderground v.1.15,2013-04-22 17:45:00,
2013-04-22 10:50:00,76.1,44.1,29.98,SE,142,1.0,1.0,32,0.00,,,0.00,Wunderground v.1.15,2013-04-22 17:50:00,
2013-04-22 10:55:00,77.2,44.2,29.98,SSE,153,1.0,1.0,31,0.00,,,0.00,Wunderground v.1.15,2013-04-22 17:55:00,
2013-04-22 11:00:00,77.8,43.9,29.98,ESE,107,0.0,0.0,30,0.00,,,0.00,Wunderground v.1.15,2013-04-22 18:00:00,
2013-04-22 11:05:00,78.1,45.8,29.98,ESE,123,1.0,1.0,32,0.00,,,0.00,Wunderground v.1.15,2013-04-22 18:05:00,
2013-04-22 11:10:00,77.9,44.0,29.98,SE,125,1.0,2.0,30,0.00,,,0.00,Wunderground v.1.15,2013-04-22 18:10:00,
2013-04-22 11:15:00,78.1,45.0,29.98,ESE,110,1.0,2.0,31,0.00,,,0.00,Wunderground v.1.15,2013-04-22 18:15:00,
2013-04-22 11:25:00,77.8,43.0,29.97,SE,129,2.0,4.0,29,0.00,,,0.00,Wunderground v.1.15,2013-04-22 18:25:00,
2013-04-22 11:30:00,77.7,43.8,29.97,SSE,161,2.0,2.0,30,0.00,,,0.00,Wunderground v.1.15,2013-04-22 18:30:00,
2013-04-22 11:40:00,78.9,41.1,29.97,SSE,165,1.0,1.0,26,0.00,,,0.00,Wunderground v.1.15,2013-04-22 18:40:00,
2013-04-22 11:45:00,79.4,41.5,29.97,WSW,248,1.0,1.0,26,0.00,,,0.00,Wunderground v.1.15,2013-04-22 18:45:00,
2013-04-22 11:50:00,79.8,39.8,29.97,SSE,161,1.0,2.0,24,0.00,,,0.00,Wunderground v.1.15,2013-04-22 18:50:00,
2013-04-22 11:55:00,79.7,42.8,29.97,SE,130,1.0,4.0,27,0.00,,,0.00,Wunderground v.1.15,2013-04-22 18:55:00,
2013-04-22 12:00:00,80.0,42.0,29.97,SE,128,1.0,1.0,26,0.00,,,0.00,Wunderground v.1.15,2013-04-22 19:00:00,
2013-04-22 12:05:00,79.8,40.8,29.97,East,82,2.0,3.0,25,0.00,,,0.00,Wunderground v.1.15,2013-04-22 19:05:00,
2013-04-22 12:10:00,79.9,40.9,29.96,SSW,205,1.0,1.0,25,0.00,,,0.00,Wunderground v.1.15,2013-04-22 19:10:00,
2013-04-22 12:15:00,80.6,39.4,29.96,WNW,298,1.0,1.0,23,0.00,,,0.00,Wunderground v.1.15,2013-04-22 19:15:00,
2013-04-22 12:25:00,80.2,40.1,29.95,NW,322,1.0,3.0,24,0.00,,,0.00,Wunderground v.1.15,2013-04-22 19:25:00,
2013-04-22 12:30:00,80.7,39.4,29.95,SE,139,1.0,4.0,23,0.00,,,0.00,Wunderground v.1.15,2013-04-22 19:30:00,
2013-04-22 12:35:00,80.5,40.4,29.95,WNW,291,2.0,4.0,24,0.00,,,0.00,Wunderground v.1.15,2013-04-22 19:35:00,
2013-04-22 12:40:00,80.7,40.5,29.95,SE,142,2.0,4.0,24,0.00,,,0.00,Wunderground v.1.15,2013-04-22 19:40:00,
2013-04-22 12:50:00,80.9,39.6,29.94,SE,146,2.0,3.0,23,0.00,,,0.00,Wunderground v.1.15,2013-04-22 19:50:00,
2013-04-22 12:55:00,81.2,42.0,29.94,SE,138,2.0,3.0,25,0.00,,,0.00,Wunderground v.1.15,2013-04-22 19:55:00,
2013-04-22 13:00:00,81.2,39.9,29.94,SW,219,2.0,2.0,23,0.00,,,0.00,Wunderground v.1.15,2013-04-22 20:00:00,
2013-04-22 13:05:00,81.5,39.0,29.94,SE,144,2.0,2.0,22,0.00,,,0.00,Wunderground v.1.15,2013-04-22 20:05:00,
2013-04-22 13:15:00,81.8,39.2,29.93,SE,140,1.0,3.0,22,0.00,,,0.00,Wunderground v.1.15,2013-04-22 20:15:00,
2013-04-22 13:20:00,82.3,40.8,29.93,ESE,115,1.0,1.0,23,0.00,,,0.00,Wunderground v.1.15,2013-04-22 20:20:00,
2013-04-22 13:25:00,82.5,42.1,29.93,SE,132,1.0,3.0,24,0.00,,,0.00,Wunderground v.1.15,2013-04-22 20:25:00,
2013-04-22 13:30:00,82.6,38.7,29.93,SE,129,1.0,1.0,21,0.00,,,0.00,Wunderground v.1.15,2013-04-22 20:30:00,
2013-04-22 13:35:00,83.1,41.5,29.93,ESE,117,1.0,2.0,23,0.00,,,0.00,Wunderground v.1.15,2013-04-22 20:35:00,
2013-04-22 13:40:00,82.9,40.1,29.93,East,98,1.0,5.0,22,0.00,,,0.00,Wunderground v.1.15,2013-04-22 20:40:00,
2013-04-22 13:45:00,82.9,41.3,29.92,ESE,119,1.0,5.0,23,0.00,,,0.00,Wunderground v.1.15,2013-04-22 20:45:00,
2013-04-22 13:55:00,83.3,40.5,29.92,SE,140,1.0,1.0,22,0.00,,,0.00,Wunderground v.1.15,2013-04-22 20:55:00,
2013-04-22 14:00:00,83.9,41.0,29.92,SSE,160,1.0,1.0,22,0.00,,,0.00,Wunderground v.1.15,2013-04-22 21:00:00,
2013-04-22 14:05:00,83.6,40.7,29.92,South,186,2.0,2.0,22,0.00,,,0.00,Wunderground v.1.15,2013-04-22 21:05:00,
2013-04-22 14:10:00,83.8,40.9,29.92,SW,231,1.0,1.0,22,0.00,,,0.00,Wunderground v.1.15,2013-04-22 21:10:00,
2013-04-22 14:15:00,84.8,42.9,29.91,SW,231,0.0,1.0,23,0.00,,,0.00,Wunderground v.1.15,2013-04-22 21:15:00,
2013-04-22 14:20:00,85.5,42.3,29.91,WNW,292,0.0,3.0,22,0.00,,,0.00,Wunderground v.1.15,2013-04-22 21:20:00,
2013-04-22 14:25:00,85.4,42.2,29.91,East,87,1.0,3.0,22,0.00,,,0.00,Wunderground v.1.15,2013-04-22 21:25:00,
2013-04-22 14:30:00,85.4,41.0,29.91,NNE,24,1.0,1.0,21,0.00,,,0.00,Wunderground v.1.15,2013-04-22 21:30:00,
2013-04-22 14:40:00,85.1,39.5,29.91,NE,49,2.0,2.0,20,0.00,,,0.00,Wunderground v.1.15,2013-04-22 21:40:00,
2013-04-22 14:45:00,85.4,41.0,29.90,NW,321,2.0,2.0,21,0.00,,,0.00,Wunderground v.1.15,2013-04-22 21:45:00,
2013-04-22 14:50:00,85.1,42.0,29.90,WSW,237,3.0,4.0,22,0.00,,,0.00,Wunderground v.1.15,2013-04-22 21:50:00,
2013-04-22 14:55:00,85.2,42.1,29.90,North,350,2.0,4.0,22,0.00,,,0.00,Wunderground v.1.15,2013-04-22 21:55:00,
2013-04-22 15:05:00,85.1,42.0,29.90,SSE,151,3.0,3.0,22,0.00,,,0.00,Wunderground v.1.15,2013-04-22 22:05:00,
2013-04-22 15:10:00,85.4,38.4,29.89,WNW,300,2.0,2.0,19,0.00,,,0.00,Wunderground v.1.15,2013-04-22 22:10:00,
2013-04-22 15:15:00,85.6,39.9,29.89,NNW,333,1.0,4.0,20,0.00,,,0.00,Wunderground v.1.15,2013-04-22 22:15:00,
2013-04-22 15:20:00,85.5,41.1,29.89,NW,320,2.0,4.0,21,0.00,,,0.00,Wunderground v.1.15,2013-04-22 22:20:00,
2013-04-22 15:25:00,85.3,40.9,29.89,South,187,1.0,4.0,21,0.00,,,0.00,Wunderground v.1.15,2013-04-22 22:25:00,
2013-04-22 15:30:00,85.5,42.3,29.88,SE,126,1.0,1.0,22,0.00,,,0.00,Wunderground v.1.15,2013-04-22 22:30:00,
2013-04-22 15:35:00,85.9,40.2,29.88,NW,317,1.0,3.0,20,0.00,,,0.00,Wunderground v.1.15,2013-04-22 22:35:00,
2013-04-22 15:40:00,85.9,41.4,29.88,West,262,1.0,1.0,21,0.00,,,0.00,Wunderground v.1.15,2013-04-22 22:40:00,
2013-04-22 15:50:00,86.1,41.6,29.87,SSE,159,1.0,1.0,21,0.00,,,0.00,Wunderground v.1.15,2013-04-22 22:50:00,
2013-04-22 15:55:00,86.2,37.7,29.87,East,81,1.0,1.0,18,0.00,,,0.00,Wunderground v.1.15,2013-04-22 22:55:00,
2013-04-22 16:00:00,86.5,38.0,29.87,WNW,289,1.0,3.0,18,0.00,,,0.00,Wunderground v.1.15,2013-04-22 23:00:00,
2013-04-22 16:05:00,86.1,36.2,29.87,West,276,2.0,3.0,17,0.00,,,0.00,Wunderground v.1.15,2013-04-22 23:05:00,
2013-04-22 16:10:00,85.9,36.0,29.86,WSW,250,2.0,2.0,17,0.00,,,0.00,Wunderground v.1.15,2013-04-22 23:10:00,
2013-04-22 16:15:00,86.1,37.6,29.86,North,355,1.0,2.0,18,0.00,,,0.00,Wunderground v.1.15,2013-04-22 23:15:00,
2013-04-22 16:20:00,86.2,39.1,29.86,West,268,2.0,3.0,19,0.00,,,0.00,Wunderground v.1.15,2013-04-22 23:20:00,
2013-04-22 16:25:00,86.2,39.1,29.86,WNW,301,2.0,3.0,19,0.00,,,0.00,Wunderground v.1.15,2013-04-22 23:25:00,
2013-04-22 16:35:00,86.1,40.3,29.86,West,263,2.0,2.0,20,0.00,,,0.00,Wunderground v.1.15,2013-04-22 23:35:00,
2013-04-22 16:40:00,86.3,40.5,29.86,NNW,328,2.0,2.0,20,0.00,,,0.00,Wunderground v.1.15,2013-04-22 23:40:00,
2013-04-22 16:45:00,86.2,39.1,29.86,WNW,293,1.0,2.0,19,0.00,,,0.00,Wunderground v.1.15,2013-04-22 23:45:00,
2013-04-22 16:50:00,86.6,40.7,29.86,WNW,288,1.0,1.0,20,0.00,,,0.00,Wunderground v.1.15,2013-04-22 23:50:00,
2013-04-22 16:55:00,86.8,40.9,29.86,SW,227,1.0,1.0,20,0.00,,,0.00,Wunderground v.1.15,2013-04-22 23:55:00,
2013-04-22 17:00:00,86.5,41.9,29.86,NW,318,1.0,2.0,21,0.00,,,0.00,Wunderground v.1.15,2013-04-23 00:00:00,
2013-04-22 17:05:00,85.3,40.9,29.86,NW,324,2.0,6.0,21,0.00,,,0.00,Wunderground v.1.15,2013-04-23 00:05:00,
2013-04-22 17:10:00,84.7,41.6,29.85,West,269,2.0,2.0,22,0.00,,,0.00,Wunderground v.1.15,2013-04-23 00:10:00,
2013-04-22 17:15:00,84.8,41.7,29.86,West,270,2.0,2.0,22,0.00,,,0.00,Wunderground v.1.15,2013-04-23 00:15:00,
2013-04-22 17:25:00,83.9,41.0,29.85,SW,229,2.0,3.0,22,0.00,,,0.00,Wunderground v.1.15,2013-04-23 00:25:00,
2013-04-22 17:30:00,83.6,41.9,29.85,WSW,253,1.0,1.0,23,0.00,,,0.00,Wunderground v.1.15,2013-04-23 00:30:00,
2013-04-22 17:35:00,83.5,40.6,29.85,WSW,257,0.0,1.0,22,0.00,,,0.00,Wunderground v.1.15,2013-04-23 00:35:00,
2013-04-22 17:45:00,82.8,40.1,29.86,West,267,1.0,1.0,22,0.00,,,0.00,Wunderground v.1.15,2013-04-23 00:45:00,
2013-04-22 17:50:00,82.4,40.9,29.86,North,9,1.0,1.0,23,0.00,,,0.00,Wunderground v.1.15,2013-04-23 00:50:00,
2013-04-22 18:00:00,81.7,42.4,29.86,WNW,299,1.0,2.0,25,0.00,,,0.00,Wunderground v.1.15,2013-04-23 01:00:00,
2013-04-22 18:05:00,80.9,42.8,29.86,NW,317,1.0,3.0,26,0.00,,,0.00,Wunderground v.1.15,2013-04-23 01:05:00,
2013-04-22 18:10:00,80.4,42.4,29.86,North,350,1.0,1.0,26,0.00,,,0.00,Wunderground v.1.15,2013-04-23 01:10:00,
2013-04-22 18:20:00,79.7,42.8,29.86,NW,317,0.0,0.0,27,0.00,,,0.00,Wunderground v.1.15,2013-04-23 01:20:00,
2013-04-22 18:25:00,79.3,42.4,29.86,WNW,288,1.0,2.0,27,0.00,,,0.00,Wunderground v.1.15,2013-04-23 01:25:00,
2013-04-22 18:30:00,79.1,43.2,29.85,North,351,1.0,1.0,28,0.00,,,0.00,Wunderground v.1.15,2013-04-23 01:30:00,
2013-04-22 18:35:00,78.9,43.9,29.85,NW,304,0.0,1.0,29,0.00,,,0.00,Wunderground v.1.15,2013-04-23 01:35:00,
2013-04-22 18:40:00,78.6,45.4,29.85,NW,304,0.0,0.0,31,0.00,,,0.00,Wunderground v.1.15,2013-04-23 01:40:00,
2013-04-22 18:50:00,78.2,44.2,29.85,West,267,1.0,1.0,30,0.00,,,0.00,Wunderground v.1.15,2013-04-23 01:50:00,
2013-04-22 18:55:00,77.8,44.7,29.85,NW,323,1.0,3.0,31,0.00,,,0.00,Wunderground v.1.15,2013-04-23 01:55:00,
2013-04-22 19:00:00,77.3,44.3,29.85,West,267,1.0,1.0,31,0.00,,,0.00,Wunderground v.1.15,2013-04-23 02:00:00,
2013-04-22 19:05:00,76.8,44.7,29.85,WNW,288,1.0,1.0,32,0.00,,,0.00,Wunderground v.1.15,2013-04-23 02:05:00,
2013-04-22 19:15:00,75.9,46.3,29.86,NW,321,0.0,1.0,35,0.00,,,0.00,Wunderground v.1.15,2013-04-23 02:15:00,
2013-04-22 19:20:00,75.4,46.6,29.86,WNW,300,0.0,2.0,36,0.00,,,0.00,Wunderground v.1.15,2013-04-23 02:20:00,
2013-04-22 19:25:00,74.9,46.9,29.86,West,281,1.0,2.0,37,0.00,,,0.00,Wunderground v.1.15,2013-04-23 02:25:00,
2013-04-22 19:35:00,73.7,47.9,29.86,West,266,1.0,3.0,40,0.00,,,0.00,Wunderground v.1.15,2013-04-23 02:35:00,
2013-04-22 19:40:00,73.1,48.0,29.86,NW,306,1.0,2.0,41,0.00,,,0.00,Wunderground v.1.15,2013-04-23 02:40:00,
2013-04-22 19:45:00,72.6,48.2,29.86,NW,305,1.0,2.0,42,0.00,,,0.00,Wunderground v.1.15,2013-04-23 02:45:00,
2013-04-22 19:50:00,72.1,47.7,29.86,WNW,300,1.0,1.0,42,0.00,,,0.00,Wunderground v.1.15,2013-04-23 02:50:00,
2013-04-22 20:00:00,71.2,48.2,29.86,WNW,296,1.0,1.0,44,0.00,,,0.00,Wunderground v.1.15,2013-04-23 03:00:00,
2013-04-22 20:05:00,70.8,48.4,29.86,WNW,294,1.0,1.0,45,0.00,,,0.00,Wunderground v.1.15,2013-04-23 03:05:00,
2013-04-22 20:10:00,70.4,48.0,29.86,WNW,288,1.0,1.0,45,0.00,,,0.00,Wunderground v.1.15,2013-04-23 03:10:00,
2013-04-22 20:20:00,70.3,47.9,29.87,WNW,301,1.0,1.0,45,0.00,,,0.00,Wunderground v.1.15,2013-04-23 03:20:00,
2013-04-22 20:25:00,70.2,48.4,29.87,NW,311,2.0,2.0,46,0.00,,,0.00,Wunderground v.1.15,2013-04-23 03:25:00,
2013-04-22 20:30:00,69.8,48.1,29.87,WNW,297,1.0,1.0,46,0.00,,,0.00,Wunderground v.1.15,2013-04-23 03:30:00,
2013-04-22 20:40:00,69.3,47.6,29.88,NW,305,1.0,1.0,46,0.00,,,0.00,Wunderground v.1.15,2013-04-23 03:40:00,
2013-04-22 20:45:00,69.1,47.4,29.88,West,277,1.0,1.0,46,0.00,,,0.00,Wunderground v.1.15,2013-04-23 03:45:00,
2013-04-22 20:55:00,68.6,47.0,29.88,WNW,302,1.0,2.0,46,0.00,,,0.00,Wunderground v.1.15,2013-04-23 03:55:00,
2013-04-22 21:00:00,68.4,46.8,29.88,WNW,300,1.0,1.0,46,0.00,,,0.00,Wunderground v.1.15,2013-04-23 04:00:00,
2013-04-22 21:05:00,68.2,47.2,29.89,NW,309,0.0,1.0,47,0.00,,,0.00,Wunderground v.1.15,2013-04-23 04:05:00,
2013-04-22 21:10:00,67.9,46.9,29.89,NW,311,0.0,0.0,47,0.00,,,0.00,Wunderground v.1.15,2013-04-23 04:10:00,
2013-04-22 21:15:00,67.4,46.5,29.89,NW,311,0.0,0.0,47,0.00,,,0.00,Wunderground v.1.15,2013-04-23 04:15:00,
2013-04-22 21:20:00,66.9,46.6,29.89,NW,311,0.0,0.0,48,0.00,,,0.00,Wunderground v.1.15,2013-04-23 04:20:00,
2013-04-22 21:25:00,66.5,46.7,29.89,NW,311,0.0,0.0,49,0.00,,,0.00,Wunderground v.1.15,2013-04-23 04:25:00,
2013-04-22 21:30:00,65.8,46.6,29.89,NW,313,0.0,0.0,50,0.00,,,0.00,Wunderground v.1.15,2013-04-23 04:30:00,
2013-04-22 21:35:00,65.2,46.6,29.90,NW,314,0.0,0.0,51,0.00,,,0.00,Wunderground v.1.15,2013-04-23 04:35:00,
2013-04-22 21:40:00,64.6,46.1,29.89,NW,314,0.0,0.0,51,0.00,,,0.00,Wunderground v.1.15,2013-04-23 04:40:00,
2013-04-22 21:45:00,64.2,46.7,29.90,NW,314,0.0,0.0,53,0.00,,,0.00,Wunderground v.1.15,2013-04-23 04:45:00,
2013-04-22 21:50:00,63.8,46.3,29.90,NW,314,0.0,0.0,53,0.00,,,0.00,Wunderground v.1.15,2013-04-23 04:50:00,
2013-04-22 22:00:00,63.0,46.1,29.90,NW,314,0.0,0.0,54,0.00,,,0.00,Wunderground v.1.15,2013-04-23 05:00:00,
2013-04-22 22:05:00,62.7,46.3,29.90,NW,314,0.0,1.0,55,0.00,,,0.00,Wunderground v.1.15,2013-04-23 05:05:00,
2013-04-22 22:10:00,62.7,46.3,29.90,NW,314,0.0,0.0,55,0.00,,,0.00,Wunderground v.1.15,2013-04-23 05:10:00,
2013-04-22 22:15:00,62.8,46.4,29.90,NW,317,0.0,0.0,55,0.00,,,0.00,Wunderground v.1.15,2013-04-23 05:15:00,
2013-04-22 22:25:00,62.8,46.4,29.89,NW,317,0.0,0.0,55,0.00,,,0.00,Wunderground v.1.15,2013-04-23 05:25:00,
2013-04-22 22:30:00,62.4,46.0,29.89,NW,317,0.0,0.0,55,0.00,,,0.00,Wunderground v.1.15,2013-04-23 05:30:00,
2013-04-22 22:35:00,62.1,45.7,29.90,NW,317,0.0,0.0,55,0.00,,,0.00,Wunderground v.1.15,2013-04-23 05:35:00,
2013-04-22 22:45:00,61.7,44.9,29.89,NW,317,0.0,0.0,54,0.00,,,0.00,Wunderground v.1.15,2013-04-23 05:45:00,
2013-04-22 22:55:00,62.0,44.7,29.89,NW,317,0.0,0.0,53,0.00,,,0.00,Wunderground v.1.15,2013-04-23 05:55:00,
2013-04-22 23:00:00,62.2,44.3,29.89,NW,317,0.0,0.0,52,0.00,,,0.00,Wunderground v.1.15,2013-04-23 06:00:00,
2013-04-22 23:05:00,62.5,42.0,29.89,West,268,0.0,2.0,47,0.00,,,0.00,Wunderground v.1.15,2013-04-23 06:05:00,
2013-04-22 23:10:00,63.5,41.8,29.89,West,275,0.0,0.0,45,0.00,,,0.00,Wunderground v.1.15,2013-04-23 06:10:00,
2013-04-22 23:15:00,64.5,39.0,29.89,WNW,295,0.0,0.0,39,0.00,,,0.00,Wunderground v.1.15,2013-04-23 06:15:00,
2013-04-22 23:25:00,67.0,36.9,29.89,WSW,242,0.0,1.0,33,0.00,,,0.00,Wunderground v.1.15,2013-04-23 06:25:00,
2013-04-22 23:30:00,68.6,36.7,29.89,West,269,1.0,1.0,31,0.00,,,0.00,Wunderground v.1.15,2013-04-23 06:30:00,
2013-04-22 23:35:00,69.6,35.9,29.89,SSE,152,0.0,1.0,29,0.00,,,0.00,Wunderground v.1.15,2013-04-23 06:35:00,
2013-04-22 23:40:00,69.4,35.7,29.88,SSE,152,0.0,0.0,29,0.00,,,0.00,Wunderground v.1.15,2013-04-23 06:40:00,
2013-04-22 23:50:00,68.7,36.0,29.89,West,270,0.0,0.0,30,0.00,,,0.00,Wunderground v.1.15,2013-04-23 06:50:00,
2013-04-22 23:55:00,68.2,36.4,29.88,West,270,0.0,0.0,31,0.00,,,0.00,Wunderground v.1.15,2013-04-23 06:55:00,